Time,TemperatureF,DewpointF,PressureIn,WindDirection,WindDirectionDegrees,WindSpeedMPH,WindSpeedGustMPH,Humidity,HourlyPrecipIn,Conditions,Clouds,dailyrainin,SoftwareType,DateUTC
2013-01-27 00:12:00,6.0,-99.9,30.40,WNW,290,2.0,3.0,-999,-99.99,,,-99.99,,2013-01-27 05:12:00,
2013-01-27 00:42:00,6.0,-99.9,30.41,NW,325,2.0,3.0,-999,-99.99,,,-99.99,,2013-01-27 05:42:00,
2013-01-27 01:11:00,6.0,-99.9,30.41,NW,309,2.0,2.0,-999,-99.99,,,-99.99,,2013-01-27 06:11:00,
2013-01-27 01:42:00,7.0,-99.9,30.41,West,280,2.0,3.0,-999,-99.99,,,-99.99,,2013-01-27 06:42:00,
2013-01-27 02:14:00,8.0,-99.9,30.40,SSE,167,1.0,6.0,-999,-99.99,,,-99.99,,2013-01-27 07:14:00,
2013-01-27 03:12:00,11.0,-99.9,30.41,SE,140,6.0,7.0,-999,-99.99,,,-99.99,,2013-01-27 08:12:00,
2013-01-27 03:42:00,11.0,-99.9,30.40,SE,143,5.0,7.0,-999,-99.99,,,-99.99,,2013-01-27 08:42:00,
2013-01-27 04:11:00,13.0,-99.9,30.39,SE,126,4.0,6.0,-999,-99.99,,,-99.99,,2013-01-27 09:11:00,
2013-01-27 04:42:00,13.0,-99.9,30.38,ESE,122,5.0,8.0,-999,-99.99,,,-99.99,,2013-01-27 09:42:00,
2013-01-27 05:11:00,14.0,-99.9,30.39,ESE,122,4.0,5.0,-999,-99.99,,,-99.99,,2013-01-27 10:11:00,
2013-01-27 06:11:00,14.0,-99.9,30.37,SE,131,4.0,7.0,-999,-99.99,,,-99.99,,2013-01-27 11:11:00,
2013-01-27 06:42:00,14.0,-99.9,30.36,ESE,123,4.0,7.0,-999,-99.99,,,-99.99,,2013-01-27 11:42:00,
2013-01-27 07:12:00,15.0,-99.9,30.37,ESE,112,4.0,6.0,-999,-99.99,,,-99.99,,2013-01-27 12:12:00,
2013-01-27 08:12:00,15.0,-99.9,30.34,SE,133,6.0,9.0,-999,-99.99,,,-99.99,,2013-01-27 13:12:00,
2013-01-27 08:42:00,15.0,-99.9,30.34,ESE,123,4.0,8.0,-999,-99.99,,,-99.99,,2013-01-27 13:42:00,
2013-01-27 09:12:00,16.0,-99.9,30.34,SE,135,4.0,7.0,-999,-99.99,,,-99.99,,2013-01-27 14:12:00,
2013-01-27 09:43:00,16.0,-99.9,30.35,SE,125,5.0,7.0,-999,-99.99,,,-99.99,,2013-01-27 14:43:00,
2013-01-27 10:12:00,17.0,-99.9,30.34,SE,138,6.0,9.0,-999,-99.99,,,-99.99,,2013-01-27 15:12:00,
2013-01-27 10:43:00,18.0,-99.9,30.33,ESE,120,7.0,10.0,-999,-99.99,,,-99.99,,2013-01-27 15:43:00,
2013-01-27 11:12:00,19.0,-99.9,30.33,SE,138,5.0,8.0,-999,-99.99,,,-99.99,,2013-01-27 16:12:00,
2013-01-27 11:42:00,20.0,-99.9,30.34,SE,127,3.0,6.0,-999,-99.99,,,-99.99,,2013-01-27 16:42:00,
2013-01-27 12:12:00,22.0,-99.9,30.32,SE,132,6.0,8.0,-999,-99.99,,,-99.99,,2013-01-27 17:12:00,
2013-01-27 13:12:00,26.0,-99.9,30.29,South,171,7.0,13.0,-999,-99.99,,,-99.99,,2013-01-27 18:12:00,
2013-01-27 13:42:00,27.0,-99.9,30.28,South,170,10.0,13.0,-999,-99.99,,,-99.99,,2013-01-27 18:42:00,
2013-01-27 14:42:00,28.0,-99.9,30.26,SSE,166,8.0,12.0,-999,-99.99,,,-99.99,,2013-01-27 19:42:00,
2013-01-27 15:12:00,28.0,-99.9,30.25,South,170,7.0,13.0,-999,-99.99,,,-99.99,,2013-01-27 20:12:00,
2013-01-27 16:12:00,28.0,-99.9,30.23,SSE,160,8.0,10.0,-999,-99.99,,,-99.99,,2013-01-27 21:12:00,
2013-01-27 16:43:00,29.0,-99.9,30.23,SSE,160,9.0,12.0,-999,-99.99,,,-99.99,,2013-01-27 21:43:00,
2013-01-27 17:12:00,28.0,-99.9,30.22,SSE,167,9.0,13.0,-999,-99.99,,,-99.99,,2013-01-27 22:12:00,
2013-01-27 18:12:00,28.0,-99.9,30.23,SSE,155,8.0,12.0,-999,-99.99,,,-99.99,,2013-01-27 23:12:00,
2013-01-27 18:42:00,27.0,-99.9,30.23,SSE,149,6.0,9.0,-999,-99.99,,,-99.99,,2013-01-27 23:42:00,
2013-01-27 19:42:00,27.0,-99.9,30.22,SE,134,5.0,7.0,-999,-99.99,,,-99.99,,2013-01-28 00:42:00,
2013-01-27 20:12:00,26.0,-99.9,30.22,SE,134,6.0,7.0,-999,-99.99,,,-99.99,,2013-01-28 01:12:00,
2013-01-27 20:43:00,27.0,-99.9,30.21,SE,142,6.0,9.0,-999,-99.99,,,-99.99,,2013-01-28 01:43:00,
2013-01-27 21:12:00,28.0,-99.9,30.20,SE,133,7.0,10.0,-999,-99.99,,,-99.99,,2013-01-28 02:12:00,
2013-01-27 21:42:00,28.0,-99.9,30.19,SE,140,7.0,8.0,-999,-99.99,,,-99.99,,2013-01-28 02:42:00,
2013-01-27 22:12:00,28.0,-99.9,30.18,SE,140,7.0,9.0,-999,-99.99,,,-99.99,,2013-01-28 03:12:00,
2013-01-27 22:42:00,28.0,-99.9,30.17,SE,140,7.0,10.0,-999,-99.99,,,-99.99,,2013-01-28 03:42:00,
2013-01-27 23:12:00,28.0,-99.9,30.15,SE,135,8.0,12.0,-999,-99.99,,,-99.99,,2013-01-28 04:12:00,
2013-01-27 23:42:00,28.0,-99.9,30.14,SE,128,9.0,15.0,-999,-99.99,,,-99.99,,2013-01-28 04:42:00,